CAPE
0 0 0 0 0 0 0 0 0 0 0 0 0 0 0 0 0 0 0 0 12 168 205 176 100 71 43 1 2 1 2 0 2 5 0 0 0 0 0 0 0 0 0
0 0 0 0 0 0 0 0 0 0 0 0 0 0 0 0 0 0 0 2 0 0 3 88 402 330 191 51 51 6 5 0 2 1 0 0 0 0 0 0 0 0 0
0 0 0 0 0 0 0 0 0 0 0 0 0 0 0 0 0 0 0 0 0 0 0 0 0 5 318 340 212 89 59 13 4 2 0 0 0 0 0 0 0 0 0
0 0 0 0 0 0 0 0 0 0 0 0 0 0 0 0 0 0 1 3 0 0 2 2 0 0 0 24 200 273 190 99 51 12 0 0 0 0 0 0 0 0 0
0 0 0 0 0 0 0 0 0 0 0 0 0 0 0 0 0 3 3 5 6 2 6 1 4 3 0 0 0 2 30 199 128 45 1 5 0 0 0 0 0 0 0
0 0 0 0 0 0 0 0 0 0 0 0 0 0 0 0 0 5 10 8 6 4 5 6 7 2 9 0 0 0 0 3 13 82 27 4 2 0 0 0 0 0 0
0 0 0 0 0 0 0 0 0 0 0 0 0 0 0 0 2 4 3 7 4 7 8 7 5 5 1 10 10 2 1 0 0 1 3 4 3 5 0 0 0 0 0
0 0 0 0 0 0 0 0 0 0 0 0 0 0 0 0 2 3 7 2 2 3 12 12 10 10 2 3 22 22 19 21 17 6 7 10 7 3 6 0 0 0 0
0 0 0 0 0 0 0 0 0 0 0 0 0 0 0 0 0 3 5 1 0 1 0 3 6 4 5 21 35 26 14 9 10 5 5 0 0 0 0 1 0 1 0
0 0 0 0 0 0 0 0 0 0 0 0 0 0 0 0 0 3 7 13 10 9 16 13 2 9 18 23 23 35 19 5 5 1 0 1 0 3 0 0 0 0 0
0 0 0 0 0 0 0 0 0 0 0 1 0 0 0 0 1 4 10 12 21 23 15 11 11 7 11 12 15 7 15 12 6 6 7 5 2 6 12 7 0 0 0
0 0 0 0 0 0 0 0 0 0 1 1 2 2 1 1 2 4 14 14 17 25 22 12 9 11 13 16 11 8 8 14 6 2 1 0 2 6 14 5 0 0 0
0 0 0 0 0 0 0 0 0 0 1 1 1 3 2 6 3 5 15 17 14 17 16 16 7 7 5 2 3 7 10 7 5 1 1 1 2 2 3 1 0 0 0
0 0 0 0 0 0 0 0 0 0 0 1 2 4 7 6 2 14 21 33 17 19 17 9 6 3 0 2 3 4 9 7 5 13 0 3 3 6 2 0 0 0 0
0 0 0 0 0 0 0 0 0 0 1 4 10 8 14 14 9 18 19 25 22 21 7 9 10 10 7 6 6 6 8 11 6 7 1 21 10 9 8 0 0 0 0
0 0 0 0 0 0 0 0 0 0 0 0 1 8 14 7 11 13 13 14 7 6 4 9 8 10 13 16 12 10 10 10 15 12 6 1 19 7 8 0 0 0 0
0 0 0 0 0 0 0 0 0 0 0 0 0 2 3 4 11 11 11 11 3 0 0 3 7 11 10 16 15 10 11 13 13 16 13 5 0 21 2 0 0 0 0
0 0 0 0 0 0 0 0 0 0 0 0 0 0 0 5 12 8 9 1 0 0 0 2 3 6 8 11 13 8 8 9 10 13 11 11 4 5 6 5 0 0 0
0 0 0 0 0 0 0 0 0 0 0 0 0 0 1 6 11 1 2 0 0 1 1 3 4 4 7 6 11 6 6 7 8 7 7 8 10 7 4 3 10 0 0
0 0 0 0 0 0 0 0 0 0 0 0 0 0 0 12 0 0 0 0 0 1 5 4 2 2 5 5 7 5 2 3 4 5 5 3 8 8 5 8 4 15 6
0 0 0 0 0 0 0 0 0 0 0 0 0 0 15 4 0 0 0 0 0 1 3 3 3 2 2 3 3 4 3 2 3 3 3 3 4 7 5 4 9 9 7
0 0 0 0 0 0 0 0 0 0 0 0 0 0 9 0 0 0 0 0 0 1 4 4 2 1 2 3 3 3 3 2 3 1 1 1 3 6 5 5 4 6 12
0 0 0 0 0 0 0 0 0 0 0 0 0 0 0 0 0 0 0 0 0 1 1 2 1 0 0 1 1 2 2 1 3 3 2 1 6 7 4 5 7 6 6
0 0 0 0 0 0 0 0 0 0 0 0 0 0 0 0 0 0 0 0 0 1 1 0 0 0 0 0 0 0 0 0 3 2 1 3 10 7 4 4 4 5 5
0 0 0 0 0 0 0 0 0 0 0 0 0 0 0 0 0 0 0 0 0 0 0 0 0 0 0 0 0 0 0 0 1 0 1 4 8 6 4 3 2 3 1
0 0 0 0 0 0 0 0 0 0 0 0 0 0 0 0 0 0 0 0 0 0 0 0 0 0 0 0 0 3 2 17 4 3 3 6 7 7 7 4 2 1 3
CIN
0 0 0 0 0 0 0 0 0 0 0 0 0 0 0 0 0 0 0 0 -41 -10 -8 -8 -12 -25 -59 -3 -17 0 0 -1 0 0 -1 -14 0 0 0 0 0 0 0
0 0 0 0 0 0 0 0 0 0 0 0 0 0 0 0 0 0 0 0 0 0 0 -28 0 0 -2 -39 -81 -46 -20 -15 0 0 0 0 0 0 0 0 0 0 0
0 0 0 0 0 0 0 0 0 0 0 0 0 0 0 0 0 0 0 0 0 0 0 0 0 0 -2 -2 -4 -15 -13 -32 -35 -2 0 -1 0 0 0 0 0 0 0
0 0 0 0 0 0 0 0 0 0 0 0 0 0 0 0 0 0 0 0 0 0 0 0 0 0 0 -48 -7 -4 -4 -20 -14 -19 -1 -1 0 0 0 0 0 0 0
0 0 0 0 0 0 0 0 0 0 0 0 0 0 0 0 0 0 0 0 0 0 0 0 0 0 0 0 0 0 -6 -5 -4 -7 -25 -11 0 0 0 0 0 0 0
0 0 0 0 0 0 0 0 0 0 0 0 0 0 0 0 0 0 0 0 0 0 0 0 0 -1 0 0 0 0 0 0 -2 -2 -7 -66 -4 0 0 0 0 0 0
0 0 0 0 0 0 0 0 0 0 0 0 0 0 0 0 0 0 0 0 0 0 0 0 0 0 0 0 0 -1 -1 0 0 0 0 -5 -5 -4 0 0 0 0 0
0 0 0 0 0 0 0 0 0 0 0 0 0 0 0 0 0 0 0 0 0 0 0 0 0 0 0 -1 0 0 0 0 0 0 -1 0 -1 -2 -2 0 0 0 0
0 0 0 0 0 0 0 0 0 0 0 0 0 0 0 0 0 0 0 0 0 0 0 0 0 0 0 0 0 0 0 0 0 -1 -3 0 0 -2 -2 -1 0 0 0
0 0 0 0 0 0 0 0 0 0 0 0 0 0 0 0 0 0 0 0 0 0 0 0 0 0 0 0 0 0 0 -1 -1 -2 -1 -1 -1 0 -1 0 0 0 0
0 0 0 0 0 0 0 0 0 0 0 0 0 0 0 0 0 0 0 0 0 0 0 0 0 0 0 0 0 0 0 0 0 -1 -1 -1 -1 -1 -1 -2 0 0 0
0 0 0 0 0 0 0 0 0 0 0 0 0 0 0 0 0 0 0 0 0 0 0 0 0 0 0 0 0 0 0 0 0 -1 -1 -1 0 -1 -1 -7 0 0 0
0 0 0 0 0 0 0 0 0 0 0 0 0 0 0 0 0 0 0 0 0 0 0 0 0 0 0 0 0 0 0 0 0 0 0 0 -1 -1 -4 -9 0 0 0
0 0 0 0 0 0 0 0 0 0 0 0 0 0 0 0 0 0 0 0 0 0 0 0 0 0 0 0 0 0 0 0 0 0 0 -1 -1 -1 -1 0 0 0 0
0 0 0 0 0 0 0 0 0 0 0 0 0 0 0 0 0 0 0 0 0 0 0 0 0 0 0 0 0 0 0 0 0 0 0 0 0 0 -1 -2 0 0 0
0 0 0 0 0 0 0 0 0 0 0 0 0 0 0 0 0 0 0 0 0 0 0 0 0 0 0 0 0 0 0 0 0 0 0 0 0 0 0 -1 0 0 0
0 0 0 0 0 0 0 0 0 0 0 0 0 0 0 0 0 0 0 0 0 0 0 0 0 0 0 0 0 0 0 0 0 0 0 0 0 0 -1 -2 0 0 0
0 0 0 0 0 0 0 0 0 0 0 0 0 0 0 0 0 0 0 0 0 0 0 0 0 0 0 0 0 0 0 0 0 0 0 0 0 0 0 -1 0 0 0
0 0 0 0 0 0 0 0 0 0 0 0 0 0 0 0 0 0 0 0 0 0 0 0 0 0 0 0 0 0 0 0 0 0 0 0 0 0 0 0 0 0 0
0 0 0 0 0 0 0 0 0 0 0 0 0 0 0 0 0 0 0 0 0 0 0 0 0 0 0 0 0 0 0 0 0 0 0 0 0 0 0 0 0 0 -2
0 0 0 0 0 0 0 0 0 0 0 0 0 0 0 0 0 0 0 0 0 0 0 0 0 0 0 0 0 0 0 0 0 0 0 0 0 0 0 0 0 0 0
0 0 0 0 0 0 0 0 0 0 0 0 0 0 0 0 0 0 0 0 0 0 0 0 0 0 0 0 0 0 0 0 0 0 0 0 0 0 0 0 0 0 0
0 0 0 0 0 0 0 0 0 0 0 0 0 0 0 0 0 0 0 0 0 0 0 0 0 0 0 0 0 0 0 0 0 0 0 0 0 0 0 0 0 0 0
0 0 0 0 0 0 0 0 0 0 0 0 0 0 0 0 0 0 0 0 0 0 0 0 0 0 0 0 0 0 0 0 0 0 0 0 0 0 0 0 0 0 0
0 0 0 0 0 0 0 0 0 0 0 0 0 0 0 0 0 0 0 0 0 0 0 0 0 0 0 0 0 0 0 0 0 0 0 0 0 0 0 0 0 0 0
0 0 0 0 0 0 0 0 0 0 0 0 0 0 0 0 0 0 0 0 0 0 0 0 0 0 0 0 0 0 0 0 0 0 0 0 0 0 0 0 0 0 0
Wind_Speed
10 10 10 10 11 11 10 11 12 12 13 12 13 13 13 15 15 14 16 12 14 14 13 13 16 16 13 11 11 12 14 13 16 16 14 14 12 13 13 13 15 16 14
11 11 11 11 12 12 12 13 13 13 12 13 13 12 14 13 15 14 16 17 15 15 17 16 18 13 17 16 13 16 14 15 15 23 16 14 17 16 15 15 14 13 14
10 10 10 11 12 12 13 13 13 13 13 12 12 13 14 14 13 15 14 15 17 16 16 17 19 19 17 14 15 14 14 14 14 15 17 15 14 13 14 15 14 15 12
9 9 10 11 12 12 13 13 14 14 15 15 15 13 13 14 14 13 17 18 18 18 17 16 16 17 19 19 17 17 15 14 16 15 15 15 15 12 12 12 10 7 12
8 9 11 11 12 12 13 14 15 15 14 15 15 14 14 13 10 16 16 17 19 20 19 18 16 18 21 20 14 18 20 14 12 14 15 14 14 9 10 13 13 11 12
8 9 10 11 12 12 13 14 14 14 14 14 14 14 15 11 19 20 18 16 17 18 18 19 19 19 18 23 24 25 20 19 22 17 16 15 21 15 13 14 13 12 11
8 9 10 11 11 11 12 12 12 13 13 12 12 13 13 13 21 24 24 16 16 16 18 19 19 15 18 19 22 26 27 27 23 20 22 22 21 18 15 14 17 16 17
7 8 9 10 11 11 11 12 12 11 12 12 13 14 14 12 22 25 26 17 16 19 18 19 19 21 21 20 22 23 22 20 19 15 20 23 22 21 21 14 16 19 15
7 8 8 9 10 10 11 12 12 11 12 12 12 13 14 14 22 26 24 17 17 19 18 18 18 21 25 26 21 23 24 23 19 24 26 31 34 32 27 17 12 7 9
6 7 7 8 9 10 10 11 11 10 11 10 12 12 14 14 21 25 22 13 17 16 17 18 23 24 30 32 23 22 24 23 21 22 23 25 27 26 30 21 16 13 11
6 7 8 8 9 9 10 9 10 10 10 11 11 12 12 14 15 23 25 15 13 15 15 15 14 30 36 39 37 25 26 27 27 22 19 19 18 18 16 15 15 15 12
7 7 8 8 7 8 10 10 11 11 11 11 12 11 9 13 17 18 25 25 25 16 16 15 18 38 38 39 33 37 39 34 19 17 17 17 17 16 15 13 13 15 15
6 6 7 8 8 8 9 9 9 9 9 10 10 10 11 11 10 21 25 27 25 18 14 24 34 32 31 24 30 34 30 16 16 16 16 16 16 16 17 12 10 12 13
6 7 7 7 8 8 7 7 8 8 9 10 11 11 11 11 11 12 13 14 19 17 21 16 22 23 23 23 18 19 15 15 17 17 15 14 15 14 13 12 11 9 10
6 6 6 6 7 8 7 7 8 8 10 10 9 10 11 11 13 23 22 15 15 18 19 12 12 13 14 15 15 16 15 15 16 16 16 18 12 12 13 10 10 8 12
6 5 6 7 7 7 7 8 9 11 15 16 17 14 10 19 27 27 28 28 27 28 12 11 12 13 14 15 15 16 15 18 16 17 16 16 18 12 12 8 8 8 10
5 6 5 6 6 7 7 8 9 9 13 14 16 18 19 22 25 27 28 27 22 20 9 11 12 12 13 14 14 14 16 16 19 15 15 16 16 19 13 10 8 9 9
4 4 4 5 6 6 7 8 7 9 10 9 12 15 17 23 23 26 25 19 11 11 10 11 12 12 13 14 14 15 15 16 16 16 16 16 16 16 18 11 8 9 9
4 4 5 5 5 7 7 7 8 8 9 9 9 10 12 20 20 21 21 9 10 10 10 11 11 12 12 13 13 14 15 15 17 16 15 16 16 16 17 16 13 11 11
3 4 5 5 5 6 6 7 8 8 9 9 9 9 10 12 10 10 10 10 10 10 10 11 11 11 12 13 13 14 14 15 15 15 16 15 16 15 16 18 17 13 9
3 4 4 4 4 5 6 7 7 8 9 9 9 10 20 11 10 10 9 10 10 10 10 11 11 11 11 12 13 14 14 14 14 15 15 15 16 17 17 16 16 18 11
4 4 4 5 5 6 6 7 7 8 9 10 10 11 20 8 9 10 10 10 10 10 9 10 11 11 11 12 13 14 14 15 15 15 16 16 17 16 16 17 17 15 17
4 5 6 6 5 6 7 7 7 8 9 10 10 10 9 9 9 10 10 10 9 10 10 10 11 12 11 11 12 12 13 14 14 15 17 17 16 16 16 16 17 17 15
6 6 7 7 5 6 7 8 8 9 10 10 10 10 10 10 10 11 10 10 10 10 10 10 10 15 14 13 12 12 13 13 14 16 21 18 16 17 16 16 16 19 17
6 6 6 6 7 7 8 8 9 9 10 10 10 10 10 10 11 10 10 9 9 10 12 11 11 15 16 20 21 22 21 23 21 23 14 19 17 20 17 15 17 17 18
6 7 7 6 7 7 8 8 9 9 9 10 10 10 10 10 10 11 10 10 10 10 13 11 13 19 21 17 20 22 24 25 22 25 18 14 15 14 14 16 21 15 17
Wind_Direction
6 1 3 3 3 357 357 356 350 344 349 349 348 344 345 339 335 335 326 314 320 289 260 257 257 257 260 253 247 243 245 240 250 257 259 261 242 231 235 231 232 234 236
0 359 1 360 360 358 356 353 349 348 348 343 348 345 341 342 336 334 331 327 334 326 323 301 269 258 252 250 248 252 247 242 250 261 254 253 244 245 241 236 231 229 226
359 358 360 2 358 355 352 349 349 348 347 349 348 350 346 339 329 340 344 328 327 321 319 315 308 314 280 259 252 254 256 255 254 257 258 256 250 238 238 235 234 232 231
359 359 2 360 355 351 348 349 350 350 352 351 350 344 340 337 341 347 338 328 323 315 315 311 305 302 299 313 295 270 253 261 256 257 259 259 252 243 232 231 236 233 230
1 7 2 356 353 351 351 350 348 350 349 347 345 345 345 339 351 337 333 327 319 318 314 309 304 307 300 293 296 295 301 270 267 260 262 260 256 242 221 228 235 230 235
7 6 359 355 353 354 350 347 344 343 344 342 343 341 340 339 338 334 329 322 318 316 315 315 314 311 312 315 305 304 289 291 287 279 279 268 261 248 239 236 237 229 241
6 4 1 354 350 350 346 344 343 341 336 335 336 338 338 337 342 337 336 326 320 318 314 314 314 314 313 314 313 308 300 298 284 281 283 272 277 269 250 245 234 234 236
11 2 357 351 346 345 344 345 344 339 337 337 341 343 342 343 343 343 336 328 326 326 319 315 312 313 315 314 308 303 299 297 294 285 285 281 267 269 272 253 235 241 245
10 0 352 345 338 339 343 342 340 337 337 340 341 343 344 341 347 345 343 334 328 324 319 312 312 310 307 306 302 300 300 296 294 287 284 293 282 272 260 268 248 219 234
358 346 338 341 334 331 342 337 335 332 334 337 337 341 342 341 347 345 345 336 327 324 316 311 308 309 312 311 305 296 292 293 297 295 288 285 283 282 268 247 254 235 234
341 336 334 337 329 332 333 330 332 334 333 337 337 340 340 344 341 342 342 335 326 323 319 316 314 316 313 309 299 291 285 290 286 283 282 280 276 270 265 248 233 241 232
339 331 335 330 330 336 333 332 335 337 336 335 337 335 338 340 340 334 339 334 333 325 321 315 315 318 316 319 306 291 287 283 277 274 278 276 276 274 269 253 224 224 232
334 329 329 333 338 336 337 336 332 337 336 333 334 334 335 333 335 328 333 335 334 332 319 317 319 320 323 323 324 328 332 287 277 272 270 272 273 274 268 253 233 233 244
331 336 338 336 337 340 334 338 334 336 334 333 331 335 331 326 338 327 334 328 334 332 329 320 320 326 332 331 333 336 331 323 326 293 274 275 279 279 273 251 228 216 231
334 334 338 333 338 336 339 333 333 330 329 327 329 334 330 328 333 330 334 334 336 326 335 322 332 336 337 337 336 334 331 329 329 325 321 307 286 282 274 255 237 223 226
336 343 343 333 337 333 328 322 323 325 328 329 334 336 325 332 325 337 333 338 339 341 336 334 334 337 335 333 332 330 329 329 326 322 322 320 308 287 284 259 239 226 228
339 331 327 327 327 326 328 327 322 327 329 332 333 334 332 333 327 338 337 341 339 348 346 337 330 332 332 327 329 328 324 325 321 323 322 323 322 319 294 277 247 238 236
329 313 315 323 325 324 320 313 315 320 323 325 331 328 333 331 331 337 338 342 336 348 342 332 327 328 329 323 324 324 323 322 327 323 326 326 328 322 326 296 265 248 242
338 333 329 315 310 313 307 312 314 312 315 317 320 325 333 319 332 332 341 340 333 332 332 325 323 323 320 320 319 321 320 320 321 322 327 327 327 329 321 323 302 265 251
327 306 311 307 313 315 311 312 311 314 315 315 318 322 320 316 332 333 333 329 326 322 321 319 319 319 317 319 319 320 320 320 323 322 323 326 321 327 321 317 318 297 270
303 301 312 298 301 302 304 302 304 306 305 308 306 312 316 335 319 319 320 318 319 315 315 314 315 315 315 317 317 318 317 316 318 319 319 321 318 326 324 318 313 315 285
287 298 302 296 293 294 294 295 298 299 299 302 305 308 319 314 309 309 310 310 309 307 307 307 308 310 310 312 313 312 314 314 316 318 315 316 314 325 323 321 320 315 312
265 286 285 277 277 283 288 293 291 294 298 298 301 304 308 305 304 302 304 304 303 303 304 304 304 304 304 304 306 302 305 307 312 312 308 311 315 325 326 322 323 320 319
256 268 278 283 289 295 290 293 293 289 288 292 296 298 298 298 298 298 296 297 298 297 298 299 298 298 300 303 301 300 297 301 305 303 306 305 319 323 323 324 323 323 317
247 262 279 287 287 288 290 286 286 286 287 289 292 294 295 295 294 292 294 293 293 293 294 297 295 296 299 300 297 296 297 304 303 300 304 310 319 323 324 325 327 325 324
251 266 278 281 278 277 278 282 282 284 284 286 288 289 291 292 289 290 291 290 290 291 296 290 291 294 296 296 294 298 303 307 306 315 316 311 321 322 324 326 330 329 327